This is the latest recevied weather packets stored in our database for station/object KD0JCP-10. If no packets are shown the sender has not sent any weather packets the latest 10 day(s).
| Time | Temp. | Humidity | Pressure | Rain* | Wind** | Luminosity | Snow |
|---|---|---|---|---|---|---|---|
| 1777814479 | 13.33° C | 55% | 1013.1 hPa | 0 mm | - | - | - |
| 1777814179 | 12.78° C | 56% | 1013.2 hPa | 0 mm | - | - | - |
| 1777811479 | 10° C | 59% | 1012.7 hPa | 0 mm | - | - | - |
| 1777811179 | 10° C | 60% | 1012.8 hPa | 0 mm | - | - | - |
| 1777810879 | 10° C | 59% | 1012.7 hPa | 0 mm | - | - | - |
| 1777809979 | 9.44° C | 60% | 1012.7 hPa | 0 mm | - | - | - |
| 1777807279 | 10° C | 58% | 1012.2 hPa | 0 mm | - | - | - |
| 1777803979 | 10.56° C | 57% | 1012.4 hPa | 0 mm | - | - | - |
| 1777803680 | 10.56° C | 57% | 1012.6 hPa | 0 mm | - | - | - |
| 1777803079 | 11.11° C | 55% | 1013.1 hPa | 0 mm | - | - | - |
| 1777802779 | 11.11° C | 54% | 1012.4 hPa | 0 mm | - | - | - |
| 1777802179 | 11.11° C | 54% | 1012.1 hPa | 0 mm | - | - | - |
| 1777801280 | 10.56° C | 55% | 1012.1 hPa | 0 mm | - | - | - |
| 1777800979 | 10.56° C | 54% | 1012.1 hPa | 0 mm | - | - | - |
| 1777800680 | 10.56° C | 54% | 1012.1 hPa | 0 mm | - | - | - |
| 1777800380 | 10.56° C | 54% | 1012.2 hPa | 0 mm | - | - | - |
| 1777800080 | 10.56° C | 53% | 1012.2 hPa | 0 mm | - | - | - |
| 1777799780 | 10.56° C | 53% | 1012.2 hPa | 0 mm | - | - | - |
| 1777799480 | 10.56° C | - | 1012.2 hPa | 0 mm | - | - | - |
| 1777799180 | 10.56° C | 52% | 1012.2 hPa | 0 mm | - | - | - |
| 1777798580 | 10.56° C | 51% | 1012.4 hPa | 0 mm | - | - | - |
| 1777798280 | 10.56° C | 50% | 1012.5 hPa | 0 mm | - | - | - |
| 1777797980 | 11.11° C | 49% | 1012.4 hPa | 0 mm | - | - | - |
| 1777797680 | 11.11° C | 49% | 1012.4 hPa | 0 mm | - | - | - |
| 1777797380 | 11.11° C | 49% | 1012.6 hPa | 0 mm | - | - | - |
* Rain latest hour (hover to see other rain measurements)
** Current wind speed in m/s (hover to see current wind gust speed)